Babelthuap Airport


Codes: PTRO/ROR
Name: Babelthuap Airport
City: Babelthuap Island
Country: Palau
Elevation: 176 ft.
Wikipedia:

Photos at Babelthuap Airport


   Photos courtesy of SpottingLog. You can add your own sightings and photos by signing up for a free trial today.



No photos found.

Weather at Babelthuap Airport


Time (UTC)DescriptionTempratureWindCloud coverageVisibilityPressureHumidity
17-Jun-2024 06:00Light Rain29°C4 mph, E97%10000m1007hPa69%
17-Jun-2024 09:00Light Rain29°C9 mph, E98%10000m1007hPa71%
17-Jun-2024 12:00Moderate Rain27°C11 mph, E99%4519m1010hPa79%
17-Jun-2024 15:00Moderate Rain26°C9 mph, E100%7425m1010hPa83%
17-Jun-2024 18:00Moderate Rain25°C9 mph, SE100%7800m1009hPa89%
17-Jun-2024 21:00Moderate Rain25°C7 mph, S100%10000m1009hPa89%
18-Jun-2024 00:00Light Rain26°C11 mph, S100%10000m1010hPa87%
18-Jun-2024 03:00Overcast Clouds26°C7 mph, SW100%10000m1009hPa79%
18-Jun-2024 06:00Light Rain27°C7 mph, S78%10000m1007hPa78%
18-Jun-2024 09:00Moderate Rain26°C4 mph, SW46%10000m1008hPa83%
18-Jun-2024 12:00Moderate Rain27°C4 mph, S70%10000m1010hPa80%
18-Jun-2024 15:00Moderate Rain26°C7 mph, SE100%5996m1009hPa83%
18-Jun-2024 18:00Light Rain27°C9 mph, S100%10000m1008hPa75%
18-Jun-2024 21:00Moderate Rain26°C9 mph, S100%6644m1009hPa81%
19-Jun-2024 00:00Moderate Rain26°C7 mph, SE100%10000m1010hPa82%
19-Jun-2024 03:00Light Rain27°C7 mph, S100%10000m1009hPa79%
19-Jun-2024 06:00Light Rain27°C7 mph, SW100%10000m1007hPa79%
19-Jun-2024 09:00Light Rain27°C4 mph, SW100%10000m1008hPa79%
19-Jun-2024 12:00Light Rain27°C4 mph, SW100%10000m1009hPa78%
19-Jun-2024 15:00Light Rain27°C7 mph, SW100%10000m1008hPa81%
19-Jun-2024 18:00Moderate Rain26°C2 mph, S100%10000m1007hPa79%
19-Jun-2024 21:00Light Rain27°C2 mph, S100%10000m1008hPa74%
20-Jun-2024 00:00Light Rain28°C2 mph, S88%10000m1009hPa72%
20-Jun-2024 03:00Light Rain28°C4 mph, S99%10000m1008hPa69%
20-Jun-2024 06:00Light Rain28°C4 mph, SW98%10000m1007hPa70%
20-Jun-2024 09:00Light Rain27°C4 mph, S100%10000m1008hPa77%
20-Jun-2024 12:00Light Rain27°C4 mph, S100%10000m1010hPa74%
20-Jun-2024 15:00Light Rain27°C4 mph, S85%10000m1010hPa73%
20-Jun-2024 18:00Light Rain26°C4 mph, SW83%10000m1008hPa76%
20-Jun-2024 21:00Light Rain27°C2 mph, SE55%10000m1009hPa75%
21-Jun-2024 00:00Broken Clouds27°C4 mph, SE72%10000m1010hPa76%
21-Jun-2024 03:00Light Rain28°C2 mph, SE96%9438m1009hPa72%
21-Jun-2024 06:00Moderate Rain26°C2 mph, SW98%10000m1008hPa79%
21-Jun-2024 09:00Moderate Rain26°C2 mph, NW100%9011m1009hPa81%
21-Jun-2024 12:00Light Rain26°C2 mph, NW100%10000m1011hPa78%
21-Jun-2024 15:00Light Rain26°C4 mph, NE100%10000m1010hPa77%
21-Jun-2024 18:00Light Rain26°C2 mph, NE100%10000m1009hPa79%
21-Jun-2024 21:00Moderate Rain26°C7 mph, NE100%10000m1010hPa80%
22-Jun-2024 00:00Light Rain28°C4 mph, NE99%10000m1011hPa70%
22-Jun-2024 03:00Light Rain29°C4 mph, N100%10000m1010hPa66%